• In Uzbekistan
  • List of Countries
  • For 7 days
  • Water Temperature
  • Weather Map
  • Weather Widgets
  • user-avatar
    Login

    Hourly Weather Eger

    Today, 28 January, Tuesday

    Time Temperature Precipitation Wind Pressure Humidity
    00:00 0°C° 0 mm 1 mps 744 mmHg 76%
    01:00 0°C° 0 mm 1 mps 743 mmHg 74%
    02:00 0°C° 0 mm 1 mps 743 mmHg 73%
    03:00 0°C° 0 mm 1 mps 743 mmHg 72%
    04:00 0°C° 0 mm 1 mps 742 mmHg 72%
    05:00 0°C° 0 mm 1 mps 742 mmHg 74%
    06:00 0°C° 0 mm 1 mps 741 mmHg 76%
    07:00 0°C° 0 mm 1 mps 741 mmHg 78%
    08:00 -2°C° 0.4 mm 2 mps 740 mmHg 82%
    09:00 -1°C° 0.4 mm 2 mps 740 mmHg 86%
    10:00 -1°C° 0.4 mm 3 mps 739 mmHg 91%
    11:00 -1°C° 1.7 mm 2 mps 739 mmHg 93%
    12:00 +2°C° 1.7 mm 1 mps 738 mmHg 95%
    13:00 +2°C° 1.7 mm 1 mps 738 mmHg 98%
    14:00 +2°C° 0.3 mm 1 mps 737 mmHg 98%
    15:00 +3°C° 0.3 mm 1 mps 736 mmHg 98%
    16:00 +3°C° 0.3 mm 1 mps 736 mmHg 97%
    17:00 +3°C° 0.8 mm 1 mps 735 mmHg 98%
    18:00 +2°C° 0.8 mm 2 mps 735 mmHg 98%
    19:00 +2°C° 0.8 mm 2 mps 734 mmHg 98%
    20:00 +2°C° 3.5 mm 2 mps 734 mmHg 97%
    21:00 +2°C° 3.5 mm 2 mps 734 mmHg 97%
    22:00 +1°C° 3.5 mm 3 mps 733 mmHg 96%
    23:00 +1°C° 0 mm 3 mps 734 mmHg 94%

    Tomorrow, 29 January, Wednesday

    Time Temperature Precipitation Wind Pressure Humidity
    00:00 0°C° 0 mm 4 mps 734 mmHg 91%
    01:00 0°C° 0 mm 5 mps 734 mmHg 88%
    02:00 0°C° 0 mm 5 mps 735 mmHg 84%
    03:00 -1°C° 0 mm 6 mps 735 mmHg 81%
    04:00 -1°C° 0 mm 6 mps 736 mmHg 77%
    05:00 -2°C° 0 mm 6 mps 736 mmHg 78%
    06:00 -2°C° 0 mm 6 mps 737 mmHg 80%
    07:00 -2°C° 0 mm 5 mps 737 mmHg 81%
    08:00 -1°C° 0 mm 5 mps 737 mmHg 80%
    09:00 -1°C° 0 mm 6 mps 738 mmHg 79%
    10:00 +1°C° 0 mm 6 mps 738 mmHg 78%
    11:00 +1°C° 0 mm 6 mps 738 mmHg 78%
    12:00 +2°C° 0 mm 6 mps 738 mmHg 77%
    13:00 +2°C° 0 mm 6 mps 739 mmHg 77%
    14:00 +2°C° 0 mm 5 mps 739 mmHg 77%
    15:00 +1°C° 0 mm 5 mps 739 mmHg 78%
    16:00 +1°C° 0 mm 4 mps 739 mmHg 78%
    17:00 0°C° 0 mm 4 mps 739 mmHg 81%
    18:00 0°C° 0 mm 4 mps 740 mmHg 83%
    19:00 0°C° 0 mm 3 mps 740 mmHg 86%
    20:00 -1°C° 0 mm 4 mps 740 mmHg 85%
    21:00 -1°C° 0 mm 4 mps 741 mmHg 84%
    22:00 -2°C° 0 mm 4 mps 741 mmHg 82%
    23:00 -2°C° 0 mm 4 mps 741 mmHg 82%

    Day after tomorrow, 30 January, Thursday

    Time Temperature Precipitation Wind Pressure Humidity
    00:00 -2°C° 0 mm 5 mps 741 mmHg 82%
    01:00 -2°C° 0 mm 5 mps 742 mmHg 82%
    02:00 -2°C° 0 mm 5 mps 742 mmHg 82%
    03:00 -3°C° 0 mm 6 mps 742 mmHg 81%
    04:00 -2°C° 0 mm 6 mps 743 mmHg 80%
    05:00 -2°C° 0 mm 5 mps 743 mmHg 80%
    06:00 -2°C° 0 mm 5 mps 744 mmHg 80%
    07:00 -2°C° 0 mm 5 mps 744 mmHg 79%
    08:00 -1°C° 0 mm 5 mps 745 mmHg 78%
    09:00 -1°C° 0 mm 4 mps 745 mmHg 76%
    10:00 0°C° 0 mm 4 mps 745 mmHg 74%
    11:00 0°C° 0 mm 5 mps 745 mmHg 73%
    12:00 +1°C° 0 mm 5 mps 745 mmHg 71%
    13:00 +1°C° 0 mm 6 mps 745 mmHg 70%
    14:00 +1°C° 0 mm 5 mps 745 mmHg 73%
    15:00 +1°C° 0 mm 4 mps 744 mmHg 77%
    16:00 0°C° 0 mm 4 mps 744 mmHg 80%
    17:00 +1°C° 0 mm 3 mps 744 mmHg 79%
    18:00 +1°C° 0 mm 3 mps 744 mmHg 79%
    19:00 +1°C° 0 mm 3 mps 744 mmHg 78%
    20:00 +1°C° 0 mm 3 mps 744 mmHg 79%
    21:00 0°C° 0 mm 3 mps 743 mmHg 79%
    22:00 +1°C° 0 mm 2 mps 743 mmHg 80%
    23:00 +1°C° 0 mm 2 mps 742 mmHg 81%

    31 January, Friday

    Time Temperature Precipitation Wind Pressure Humidity
    00:00 +1°C° 0 mm 2 mps 742 mmHg 81%
    01:00 +1°C° 0 mm 2 mps 742 mmHg 82%
    02:00 +1°C° 0 mm 2 mps 741 mmHg 83%
    03:00 +1°C° 0 mm 2 mps 741 mmHg 84%
    04:00 +1°C° 0 mm 2 mps 740 mmHg 85%
    05:00 +1°C° 0.5 mm 2 mps 740 mmHg 88%
    06:00 +1°C° 0.5 mm 2 mps 740 mmHg 91%
    07:00 +1°C° 0.5 mm 2 mps 739 mmHg 94%
    08:00 +1°C° 0.1 mm 3 mps 739 mmHg 94%
    09:00 +2°C° 0.1 mm 3 mps 739 mmHg 94%
    10:00 +1°C° 0.1 mm 4 mps 739 mmHg 93%
    11:00 +3°C° 0.1 mm 4 mps 739 mmHg 90%
    12:00 +4°C° 0.1 mm 4 mps 739 mmHg 87%
    13:00 +5°C° 0.1 mm 5 mps 739 mmHg 85%
    14:00 +5°C° 0 mm 5 mps 739 mmHg 85%
    15:00 +6°C° 0 mm 5 mps 739 mmHg 86%
    16:00 +6°C° 0 mm 5 mps 739 mmHg 86%
    17:00 +6°C° 0 mm 5 mps 740 mmHg 85%
    18:00 +6°C° 0 mm 5 mps 740 mmHg 84%
    19:00 +6°C° 0 mm 5 mps 740 mmHg 83%
    20:00 +6°C° 0 mm 5 mps 741 mmHg 83%
    21:00 +6°C° 0 mm 5 mps 741 mmHg 82%
    22:00 +5°C° 0 mm 5 mps 741 mmHg 81%
    23:00 +5°C° 0 mm 5 mps 741 mmHg 82%

    1 February, Saturday

    Time Temperature Precipitation Wind Pressure Humidity
    00:00 +5°C° 0 mm 5 mps 741 mmHg 83%
    01:00 +3°C° 0 mm 5 mps 742 mmHg 84%
    02:00 +4°C° 0 mm 4 mps 742 mmHg 86%
    03:00 +4°C° 0 mm 4 mps 742 mmHg 88%
    04:00 +5°C° 0 mm 3 mps 742 mmHg 90%
    05:00 +4°C° 0 mm 3 mps 742 mmHg 90%
    06:00 +4°C° 0 mm 3 mps 742 mmHg 91%
    07:00 +4°C° 0 mm 3 mps 742 mmHg 91%
    08:00 +5°C° 0 mm 3 mps 742 mmHg 88%
    09:00 +7°C° 0 mm 3 mps 743 mmHg 85%
    10:00 +8°C° 0 mm 3 mps 743 mmHg 82%
    11:00 +8°C° 0 mm 3 mps 742 mmHg 82%
    12:00 +8°C° 0 mm 3 mps 742 mmHg 82%
    13:00 +9°C° 0 mm 3 mps 742 mmHg 82%
    14:00 +8°C° 0 mm 2 mps 742 mmHg 83%
    15:00 +8°C° 0 mm 2 mps 742 mmHg 85%
    16:00 +8°C° 0 mm 2 mps 741 mmHg 87%
    17:00 +7°C° 0 mm 2 mps 741 mmHg 88%
    18:00 +7°C° 0 mm 2 mps 741 mmHg 89%
    19:00 +7°C° 0 mm 2 mps 741 mmHg 90%
    20:00 +7°C° 0.2 mm 2 mps 741 mmHg 90%
    21:00 +7°C° 0.2 mm 3 mps 741 mmHg 91%
    22:00 +7°C° 0.2 mm 3 mps 741 mmHg 92%
    23:00 +6°C° 0.1 mm 4 mps 741 mmHg 91%

    2 February, Sunday

    Time Temperature Precipitation Wind Pressure Humidity
    00:00 +6°C° 0.1 mm 4 mps 741 mmHg 90%
    01:00 +7°C° 0.1 mm 5 mps 740 mmHg 89%
    02:00 +7°C° 0 mm 5 mps 741 mmHg 87%
    03:00 +5°C° 0 mm 6 mps 741 mmHg 85%
    04:00 +5°C° 0 mm 7 mps 741 mmHg 83%
    05:00 +5°C° 0 mm 7 mps 742 mmHg 80%
    06:00 +5°C° 0 mm 7 mps 742 mmHg 77%
    07:00 +4°C° 0 mm 6 mps 743 mmHg 74%
    08:00 +5°C° 0 mm 6 mps 744 mmHg 71%
    09:00 +5°C° 0 mm 6 mps 745 mmHg 67%
    10:00 +5°C° 0 mm 6 mps 745 mmHg 64%
    11:00 +7°C° 0 mm 5 mps 746 mmHg 62%
    12:00 +7°C° 0 mm 5 mps 746 mmHg 61%
    13:00 +8°C° 0 mm 4 mps 746 mmHg 59%
    14:00 +7°C° 0 mm 4 mps 746 mmHg 62%
    15:00 +7°C° 0 mm 4 mps 746 mmHg 66%
    16:00 +6°C° 0 mm 4 mps 745 mmHg 69%
    17:00 +7°C° 0 mm 3 mps 745 mmHg 73%
    18:00 +7°C° 0 mm 3 mps 745 mmHg 76%
    19:00 +5°C° 0 mm 3 mps 745 mmHg 80%
    20:00 +5°C° 0 mm 3 mps 745 mmHg 81%
    21:00 +6°C° 0 mm 4 mps 745 mmHg 82%
    22:00 +6°C° 0 mm 4 mps 744 mmHg 83%
    23:00 +6°C° 0.1 mm 5 mps 744 mmHg 84%
    Show more